| time (UTC) | temp F | wind direction | speed MPH | gust MPH | rain 1hr in | rain 24hr in | rain mn in | humidity % | barometer mb |
| 20260509004131 | 57 | 321 | 1.0 | 6.0 | 0.00 | 0.03 | 0.03 | 92 | 1027.3 |
| 20260509003632 | 57 | 244 | 0.0 | 4.0 | 0.00 | 0.03 | 0.03 | 92 | 1027.3 |
| 20260509003136 | 57 | 282 | 0.0 | 4.0 | 0.00 | 0.03 | 0.03 | 92 | 1027.3 |
| 20260509002637 | 57 | 262 | 0.0 | 3.0 | 0.00 | 0.03 | 0.03 | 92 | 1027.3 |
| 20260509001523 | 57 | 217 | 0.0 | 5.0 | 0.00 | 0.03 | 0.03 | 92 | 1027.3 |
| 20260509001003 | 57 | 263 | 1.0 | 5.0 | 0.00 | 0.03 | 0.03 | 93 | 1027.4 |
| 20260509000455 | 57 | 268 | 1.0 | 5.0 | 0.00 | 0.03 | 0.03 | 92 | 1027.4 |
| 20260508235940 | 57 | 285 | 0.0 | 4.0 | 0.00 | 0.03 | 0.03 | 92 | 1027.4 |
| 20260508235450 | 57 | 248 | 0.0 | 2.0 | 0.00 | 0.03 | 0.03 | 92 | 1027.4 |
| 20260508234932 | 57 | 8 | 0.0 | 3.0 | 0.00 | 0.03 | 0.03 | 92 | 1027.3 |
| 20260508234441 | 57 | 264 | 0.0 | 3.0 | 0.00 | 0.03 | 0.03 | 92 | 1027.3 |
| 20260508233318 | 57 | 222 | 0.0 | 3.0 | 0.00 | 0.03 | 0.03 | 93 | 1027.3 |
| 20260508232816 | 57 | 136 | 0.0 | 3.0 | 0.00 | 0.03 | 0.03 | 92 | 1027.2 |
| 20260508231701 | 57 | 74 | 0.0 | 2.0 | 0.00 | 0.03 | 0.03 | 93 | 1027.2 |
| 20260508231202 | 57 | 61 | 0.0 | 1.0 | 0.00 | 0.03 | 0.03 | 93 | 1027.2 |
| 20260508230648 | 57 | 55 | 0.0 | 1.0 | 0.00 | 0.03 | 0.03 | 93 | 1027.2 |
| 20260508225526 | 56 | 347 | 0.0 | 5.0 | 0.00 | 0.04 | 0.03 | 93 | 1027.1 |
| 20260508225017 | 56 | 41 | 0.0 | 5.0 | 0.00 | 0.04 | 0.03 | 93 | 1027.0 |
| 20260508224522 | 56 | 283 | 0.0 | 5.0 | 0.00 | 0.04 | 0.03 | 93 | 1026.9 |
| 20260508224004 | 56 | 257 | 0.0 | 5.0 | 0.00 | 0.04 | 0.03 | 93 | 1026.8 |
| 20260508223458 | 56 | 245 | 1.0 | 5.0 | 0.00 | 0.04 | 0.03 | 93 | 1026.8 |
| 20260508222959 | 56 | 25 | 1.0 | 5.0 | 0.00 | 0.04 | 0.03 | 92 | 1026.8 |
| 20260508222508 | 56 | 33 | 1.0 | 5.0 | 0.00 | 0.04 | 0.03 | 92 | 1026.7 |
| 20260508221953 | 56 | 42 | 1.0 | 5.0 | 0.00 | 0.04 | 0.03 | 92 | 1026.7 |
| 20260508220839 | 56 | 288 | 0.0 | 4.0 | 0.00 | 0.04 | 0.03 | 93 | 1026.6 |
| 20260508220335 | 56 | 336 | 1.0 | 4.0 | 0.00 | 0.03 | 0.02 | 93 | 1026.6 |
| 20260508215829 | 56 | 248 | 1.0 | 3.0 | 0.00 | 0.04 | 0.02 | 92 | 1026.5 |
| 20260508215324 | 56 | 309 | 0.0 | 4.0 | 0.00 | 0.04 | 0.02 | 92 | 1026.5 |
| 20260508214145 | 56 | 240 | 1.0 | 5.0 | 0.00 | 0.04 | 0.02 | 92 | 1026.4 |
| 20260508213644 | 56 | 291 | 1.0 | 5.0 | 0.00 | 0.04 | 0.02 | 92 | 1026.4 |
| 20260508213136 | 56 | 228 | 0.0 | 5.0 | 0.00 | 0.04 | 0.02 | 92 | 1026.3 |
| 20260508212635 | 56 | 336 | 0.0 | 5.0 | 0.00 | 0.04 | 0.02 | 93 | 1026.3 |
| 20260508212123 | 56 | 267 | 0.0 | 5.0 | 0.00 | 0.04 | 0.02 | 92 | 1026.4 |
| 20260508211625 | 56 | 254 | 0.0 | 2.0 | 0.00 | 0.04 | 0.02 | 92 | 1026.3 |
| 20260508210509 | 56 | 35 | 0.0 | 2.0 | 0.00 | 0.04 | 0.02 | 92 | 1026.2 |
| 20260508205953 | 56 | 98 | 0.0 | 4.0 | 0.00 | 0.04 | 0.02 | 92 | 1026.3 |
| 20260508205445 | 56 | 241 | 0.0 | 4.0 | 0.00 | 0.04 | 0.02 | 92 | 1026.2 |
| 20260508204940 | 56 | 279 | 0.0 | 4.0 | 0.00 | 0.04 | 0.02 | 92 | 1026.2 |
| 20260508204439 | 56 | 106 | 0.0 | 4.0 | 0.00 | 0.04 | 0.02 | 92 | 1026.1 |
| 20260508203921 | 56 | 39 | 0.0 | 3.0 | 0.00 | 0.04 | 0.02 | 92 | 1026.1 |
| 20260508203408 | 56 | 312 | 0.0 | 3.0 | 0.00 | 0.04 | 0.02 | 92 | 1026.1 |
| 20260508202848 | 56 | 295 | 0.0 | 3.0 | 0.00 | 0.04 | 0.02 | 92 | 1026.0 |
| 20260508202349 | 56 | 54 | 0.0 | 3.0 | 0.00 | 0.04 | 0.02 | 92 | 1026.0 |
| 20260508201210 | 56 | 302 | 0.0 | 3.0 | 0.00 | 0.04 | 0.02 | 92 | 1025.9 |
| 20260508200050 | 56 | 319 | 0.0 | 1.0 | 0.00 | 0.04 | 0.02 | 92 | 1025.8 |
| 20260508195547 | 56 | 305 | 0.0 | 3.0 | 0.00 | 0.04 | 0.02 | 92 | 1025.6 |
| 20260508195056 | 56 | 224 | 0.0 | 3.0 | 0.00 | 0.04 | 0.02 | 92 | 1025.6 |
| 20260508194545 | 56 | 60 | 0.0 | 1.0 | 0.00 | 0.04 | 0.02 | 92 | 1025.6 |
| 20260508194034 | 56 | 54 | 0.0 | 3.0 | 0.00 | 0.04 | 0.02 | 92 | 1025.5 |
| 20260508193534 | 56 | 58 | 0.0 | 4.0 | 0.00 | 0.04 | 0.02 | 92 | 1025.4 |
| 20260508193028 | 56 | 26 | 0.0 | 4.0 | 0.00 | 0.04 | 0.02 | 92 | 1025.4 |
| 20260508192518 | 56 | 283 | 0.0 | 5.0 | 0.00 | 0.03 | 0.01 | 92 | 1025.3 |
| 20260508192022 | 56 | 283 | 0.0 | 5.0 | 0.00 | 0.03 | 0.01 | 92 | 1025.3 |
| 20260508191510 | 56 | 52 | 0.0 | 5.0 | 0.00 | 0.03 | 0.01 | 92 | 1025.4 |
| 20260508190959 | 56 | 272 | 0.0 | 5.0 | 0.00 | 0.03 | 0.01 | 92 | 1025.4 |
| 20260508190458 | 56 | 248 | 0.0 | 5.0 | 0.00 | 0.03 | 0.01 | 92 | 1025.3 |
| 20260508190000 | 56 | 0 | 0.0 | 5.0 | 0.00 | 0.03 | 0.01 | 92 | 1025.3 |
| 20260508185448 | 56 | 333 | 0.0 | 4.0 | 0.00 | 0.03 | 0.01 | 92 | 1025.3 |
| 20260508184941 | 56 | 257 | 0.0 | 4.0 | 0.00 | 0.03 | 0.01 | 92 | 1025.3 |
| 20260508184427 | 56 | 303 | 0.0 | 4.0 | 0.00 | 0.03 | 0.01 | 92 | 1025.3 |
| 20260508183925 | 56 | 288 | 1.0 | 4.0 | 0.00 | 0.03 | 0.01 | 92 | 1025.2 |
| 20260508183424 | 55 | 302 | 1.0 | 4.0 | 0.00 | 0.03 | 0.01 | 91 | 1025.1 |
| 20260508182908 | 56 | 257 | 0.0 | 4.0 | 0.00 | 0.03 | 0.01 | 92 | 1025.1 |
| 20260508182410 | 56 | 203 | 0.0 | 4.0 | 0.00 | 0.03 | 0.01 | 91 | 1025.0 |
| 20260508181908 | 56 | 307 | 0.0 | 4.0 | 0.00 | 0.03 | 0.01 | 92 | 1025.0 |
| 20260508181406 | 56 | 279 | 0.0 | 4.0 | 0.00 | 0.03 | 0.01 | 91 | 1025.0 |
| 20260508180914 | 56 | 224 | 0.0 | 4.0 | 0.00 | 0.03 | 0.01 | 92 | 1025.0 |
| 20260508180408 | 56 | 299 | 0.0 | 4.0 | 0.00 | 0.03 | 0.01 | 91 | 1024.9 |
| 20260508175909 | 56 | 291 | 0.0 | 4.0 | 0.00 | 0.03 | 0.01 | 91 | 1024.9 |
| 20260508175418 | 55 | 261 | 0.0 | 4.0 | 0.00 | 0.03 | 0.01 | 91 | 1024.9 |
| 20260508174906 | 56 | 276 | 0.0 | 6.0 | 0.00 | 0.03 | 0.01 | 91 | 1024.9 |
| 20260508174346 | 55 | 241 | 0.0 | 6.0 | 0.00 | 0.03 | 0.01 | 91 | 1024.9 |
| 20260508173834 | 55 | 292 | 1.0 | 6.0 | 0.00 | 0.03 | 0.00 | 91 | 1025.0 |
| 20260508173324 | 56 | 269 | 0.0 | 6.0 | 0.00 | 0.03 | 0.00 | 91 | 1025.0 |
| 20260508172824 | 55 | 277 | 1.0 | 4.0 | 0.00 | 0.03 | 0.00 | 91 | 1025.0 |
| 20260508172312 | 55 | 264 | 1.0 | 4.0 | 0.00 | 0.03 | 0.00 | 91 | 1025.0 |
| 20260508171818 | 55 | 248 | 1.0 | 4.0 | 0.00 | 0.03 | 0.00 | 91 | 1025.0 |
| 20260508171323 | 55 | 319 | 1.0 | 4.0 | 0.00 | 0.03 | 0.00 | 91 | 1025.0 |
| 20260508170830 | 55 | 312 | 0.0 | 6.0 | 0.00 | 0.03 | 0.00 | 91 | 1025.0 |
| 20260508170317 | 55 | 298 | 0.0 | 6.0 | 0.00 | 0.03 | 0.00 | 91 | 1025.0 |
| 20260508165145 | 55 | 245 | 0.0 | 6.0 | 0.00 | 0.03 | 0.00 | 91 | 1025.0 |
| 20260508164643 | 55 | 34 | 0.0 | 6.0 | 0.00 | 0.03 | 0.00 | 91 | 1024.9 |
| 20260508164142 | 55 | 265 | 1.0 | 6.0 | 0.00 | 0.03 | 0.00 | 91 | 1025.0 |
| 20260508163625 | 55 | 334 | 1.0 | 6.0 | 0.00 | 0.02 | 0.00 | 90 | 1024.9 |
| 20260508163124 | 55 | 289 | 1.0 | 6.0 | 0.00 | 0.02 | 0.00 | 90 | 1024.9 |
| 20260508162000 | 55 | 276 | 0.0 | 6.0 | 0.00 | 0.02 | 0.00 | 90 | 1024.9 |
| 20260508161443 | 56 | 148 | 1.0 | 5.0 | 0.00 | 0.02 | 0.00 | 90 | 1024.9 |
| 20260508160949 | 56 | 245 | 1.0 | 5.0 | 0.00 | 0.02 | 0.00 | 90 | 1025.0 |
| 20260508155834 | 56 | 264 | 1.0 | 6.0 | 0.00 | 0.02 | 0.00 | 90 | 1024.9 |
| 20260508155331 | 56 | 285 | 1.0 | 6.0 | 0.00 | 0.02 | 0.00 | 90 | 1024.9 |
| 20260508154830 | 56 | 212 | 1.0 | 6.0 | 0.00 | 0.02 | 0.00 | 89 | 1024.9 |
| 20260508154320 | 56 | 288 | 1.0 | 6.0 | 0.00 | 0.02 | 0.00 | 89 | 1024.9 |
| 20260508153821 | 56 | 332 | 1.0 | 6.0 | 0.00 | 0.02 | 0.00 | 89 | 1024.8 |
| 20260508153310 | 56 | 259 | 1.0 | 6.0 | 0.00 | 0.02 | 0.00 | 89 | 1024.8 |
| 20260508152819 | 56 | 299 | 1.0 | 6.0 | 0.00 | 0.02 | 0.00 | 89 | 1024.8 |
| 20260508152313 | 56 | 321 | 1.0 | 5.0 | 0.00 | 0.02 | 0.00 | 89 | 1024.8 |
| 20260508151812 | 56 | 309 | 1.0 | 4.0 | 0.00 | 0.02 | 0.00 | 89 | 1024.8 |
| 20260508151312 | 56 | 278 | 1.0 | 5.0 | 0.00 | 0.02 | 0.00 | 89 | 1024.7 |
| 20260508150754 | 56 | 270 | 1.0 | 5.0 | 0.00 | 0.02 | 0.00 | 89 | 1024.7 |
| 20260508150248 | 56 | 317 | 1.0 | 6.0 | 0.00 | 0.02 | 0.00 | 89 | 1024.8 |
| 20260508145738 | 56 | 274 | 2.0 | 6.0 | 0.00 | 0.02 | 0.00 | 89 | 1024.8 |
| 20260508145223 | 56 | 351 | 2.0 | 6.0 | 0.00 | 0.02 | 0.00 | 89 | 1024.8 |
| 20260508144722 | 56 | 305 | 2.0 | 6.0 | 0.00 | 0.02 | 0.00 | 88 | 1024.8 |
| 20260508144228 | 56 | 248 | 1.0 | 6.0 | 0.00 | 0.02 | 0.00 | 88 | 1024.8 |
| 20260508143714 | 56 | 272 | 1.0 | 6.0 | 0.00 | 0.02 | 0.00 | 88 | 1024.8 |
| 20260508143201 | 56 | 60 | 1.0 | 5.0 | 0.00 | 0.02 | 0.00 | 88 | 1024.8 |
| 20260508142642 | 56 | 356 | 1.0 | 5.0 | 0.00 | 0.02 | 0.00 | 88 | 1024.8 |
| 20260508141528 | 56 | 257 | 2.0 | 6.0 | 0.00 | 0.02 | 0.00 | 88 | 1024.8 |
| 20260508141016 | 56 | 353 | 2.0 | 6.0 | 0.00 | 0.02 | 0.00 | 87 | 1024.8 |
| 20260508140515 | 57 | 264 | 1.0 | 6.0 | 0.00 | 0.02 | 0.00 | 87 | 1024.8 |
| 20260508135957 | 57 | 302 | 1.0 | 6.0 | 0.00 | 0.02 | 0.02 | 87 | 1024.8 |
| 20260508134830 | 57 | 101 | 2.0 | 7.0 | 0.00 | 0.02 | 0.02 | 86 | 1024.8 |
| 20260508133720 | 57 | 33 | 2.0 | 7.0 | 0.00 | 0.02 | 0.02 | 85 | 1024.8 |
| 20260508133208 | 57 | 324 | 2.0 | 7.0 | 0.00 | 0.02 | 0.02 | 85 | 1024.8 |
| 20260508132707 | 57 | 257 | 2.0 | 7.0 | 0.00 | 0.02 | 0.02 | 85 | 1024.8 |
| 20260508132158 | 57 | 37 | 2.0 | 7.0 | 0.00 | 0.02 | 0.02 | 85 | 1024.8 |
| 20260508131657 | 57 | 292 | 2.0 | 6.0 | 0.00 | 0.02 | 0.02 | 84 | 1024.8 |
| 20260508131143 | 58 | 46 | 2.0 | 6.0 | 0.00 | 0.02 | 0.02 | 84 | 1024.8 |
| 20260508130642 | 57 | 249 | 2.0 | 6.0 | 0.00 | 0.02 | 0.02 | 84 | 1024.9 |
| 20260508130150 | 58 | 308 | 1.0 | 6.0 | 0.00 | 0.02 | 0.02 | 83 | 1024.9 |
| 20260508125635 | 58 | 354 | 1.0 | 5.0 | 0.00 | 0.02 | 0.02 | 83 | 1024.9 |
| 20260508123822 | 58 | 335 | 1.0 | 4.0 | 0.00 | 0.02 | 0.02 | 82 | 1025.0 |
| 20260508123305 | 58 | 47 | 1.0 | 3.0 | 0.00 | 0.02 | 0.02 | 82 | 1025.0 |
| 20260508122128 | 58 | 331 | 1.0 | 6.0 | 0.00 | 0.02 | 0.02 | 82 | 1025.0 |
| 20260508121629 | 58 | 56 | 1.0 | 6.0 | 0.00 | 0.02 | 0.02 | 81 | 1025.0 |
| 20260508121118 | 58 | 201 | 1.0 | 6.0 | 0.00 | 0.02 | 0.02 | 81 | 1025.0 |
| 20260508120609 | 58 | 42 | 1.0 | 5.0 | 0.00 | 0.02 | 0.02 | 81 | 1025.0 |
| 20260508120104 | 58 | 290 | 1.0 | 5.0 | 0.00 | 0.02 | 0.02 | 81 | 1025.0 |
| 20260508115601 | 58 | 32 | 1.0 | 6.0 | 0.00 | 0.02 | 0.02 | 81 | 1025.0 |
| 20260508114419 | 58 | 144 | 1.0 | 6.0 | 0.00 | 0.02 | 0.02 | 81 | 1025.0 |
| 20260508113911 | 58 | 305 | 1.0 | 6.0 | 0.00 | 0.02 | 0.02 | 81 | 1024.9 |
| 20260508113354 | 58 | 87 | 1.0 | 6.0 | 0.00 | 0.02 | 0.02 | 80 | 1024.9 |
| 20260508112902 | 58 | 144 | 1.0 | 6.0 | 0.00 | 0.02 | 0.02 | 81 | 1024.9 |
| 20260508112354 | 58 | 132 | 1.0 | 5.0 | 0.00 | 0.02 | 0.02 | 81 | 1024.8 |
| 20260508111858 | 58 | 54 | 2.0 | 5.0 | 0.00 | 0.02 | 0.02 | 81 | 1024.8 |
| 20260508111346 | 58 | 115 | 2.0 | 6.0 | 0.00 | 0.02 | 0.02 | 81 | 1024.7 |
| 20260508105522 | 58 | 73 | 2.0 | 10.0 | 0.00 | 0.02 | 0.02 | 81 | 1024.6 |
| 20260508105023 | 58 | 91 | 2.0 | 10.0 | 0.00 | 0.02 | 0.02 | 82 | 1024.6 |
| 20260508103837 | 58 | 245 | 1.0 | 5.0 | 0.00 | 0.02 | 0.02 | 83 | 1024.5 |
| 20260508103330 | 58 | 134 | 2.0 | 11.0 | 0.00 | 0.03 | 0.02 | 83 | 1024.5 |
| 20260508102209 | 57 | 207 | 5.0 | 13.0 | 0.00 | 0.03 | 0.02 | 83 | 1024.6 |
| 20260508101716 | 58 | 115 | 6.0 | 13.0 | 0.00 | 0.03 | 0.02 | 84 | 1024.7 |
| 20260508101226 | 58 | 166 | 6.0 | 13.0 | 0.00 | 0.03 | 0.02 | 84 | 1024.6 |
| 20260508100707 | 58 | 130 | 5.0 | 12.0 | 0.00 | 0.03 | 0.02 | 84 | 1024.6 |
| 20260508100152 | 58 | 191 | 4.0 | 10.0 | 0.00 | 0.03 | 0.02 | 83 | 1024.5 |
| 20260508095650 | 58 | 175 | 3.0 | 11.0 | 0.00 | 0.03 | 0.02 | 83 | 1024.4 |
| 20260508095149 | 58 | 177 | 3.0 | 11.0 | 0.00 | 0.03 | 0.02 | 83 | 1024.4 |
| 20260508094026 | 58 | 148 | 5.0 | 11.0 | 0.00 | 0.03 | 0.02 | 83 | 1024.2 |
| 20260508092230 | 57 | 168 | 6.0 | 14.0 | 0.00 | 0.03 | 0.02 | 84 | 1023.9 |
| 20260508091712 | 57 | 148 | 7.0 | 14.0 | 0.00 | 0.03 | 0.02 | 84 | 1024.0 |
| 20260508091153 | 58 | 148 | 7.0 | 14.0 | 0.00 | 0.03 | 0.02 | 84 | 1024.0 |
| 20260508090652 | 58 | 179 | 6.0 | 12.0 | 0.00 | 0.03 | 0.02 | 84 | 1024.0 |
| 20260508090145 | 58 | 131 | 5.0 | 10.0 | 0.00 | 0.03 | 0.02 | 84 | 1023.9 |
| 20260508085652 | 58 | 193 | 5.0 | 15.0 | 0.00 | 0.03 | 0.02 | 84 | 1023.9 |
| 20260508084548 | 58 | 146 | 6.0 | 15.0 | 0.00 | 0.03 | 0.02 | 85 | 1023.8 |
| 20260508084046 | 58 | 191 | 4.0 | 15.0 | 0.00 | 0.03 | 0.02 | 85 | 1023.7 |
| 20260508083555 | 58 | 179 | 4.0 | 10.0 | 0.00 | 0.03 | 0.02 | 85 | 1023.7 |
| 20260508083038 | 58 | 148 | 5.0 | 10.0 | 0.00 | 0.03 | 0.02 | 86 | 1023.7 |
| 20260508082541 | 58 | 236 | 4.0 | 10.0 | 0.00 | 0.03 | 0.02 | 85 | 1023.6 |
| 20260508082039 | 58 | 176 | 4.0 | 10.0 | 0.00 | 0.03 | 0.02 | 86 | 1023.5 |
| 20260508081548 | 58 | 204 | 4.0 | 9.0 | 0.00 | 0.03 | 0.02 | 85 | 1023.6 |
| 20260508081043 | 57 | 229 | 5.0 | 11.0 | 0.00 | 0.03 | 0.02 | 85 | 1023.5 |
| 20260508080533 | 58 | 189 | 6.0 | 11.0 | 0.00 | 0.03 | 0.02 | 85 | 1023.5 |
| 20260508075402 | 58 | 217 | 5.0 | 11.0 | 0.00 | 0.03 | 0.02 | 84 | 1023.5 |
| 20260508074855 | 58 | 75 | 4.0 | 10.0 | 0.00 | 0.03 | 0.02 | 85 | 1023.4 |
| 20260508074350 | 58 | 198 | 4.0 | 9.0 | 0.00 | 0.03 | 0.02 | 84 | 1023.5 |
| 20260508073853 | 58 | 152 | 4.0 | 11.0 | 0.00 | 0.03 | 0.02 | 83 | 1023.3 |
| 20260508073333 | 59 | 218 | 4.0 | 11.0 | 0.00 | 0.04 | 0.02 | 83 | 1023.0 |
| 20260508072214 | 58 | 130 | 5.0 | 11.0 | 0.00 | 0.04 | 0.02 | 83 | 1023.0 |
| 20260508071718 | 58 | 212 | 5.0 | 10.0 | 0.00 | 0.04 | 0.02 | 83 | 1023.0 |
| 20260508071202 | 59 | 170 | 4.0 | 10.0 | 0.00 | 0.04 | 0.02 | 84 | 1022.9 |
| 20260508070647 | 59 | 137 | 4.0 | 9.0 | 0.00 | 0.04 | 0.02 | 84 | 1023.0 |
| 20260508064851 | 59 | 212 | 4.0 | 9.0 | 0.00 | 0.04 | 0.02 | 83 | 1022.9 |
| 20260508064344 | 59 | 212 | 3.0 | 8.0 | 0.00 | 0.04 | 0.02 | 82 | 1022.9 |
| 20260508063842 | 59 | 130 | 3.0 | 8.0 | 0.00 | 0.04 | 0.02 | 82 | 1022.9 |
| 20260508063332 | 59 | 129 | 4.0 | 10.0 | 0.00 | 0.04 | 0.02 | 81 | 1022.8 |
| 20260508062829 | 59 | 179 | 5.0 | 10.0 | 0.00 | 0.04 | 0.02 | 81 | 1022.8 |
| 20260508062328 | 59 | 134 | 5.0 | 11.0 | 0.00 | 0.04 | 0.02 | 80 | 1022.7 |
| 20260508061810 | 59 | 143 | 5.0 | 11.0 | 0.00 | 0.04 | 0.02 | 81 | 1022.7 |
| 20260508061300 | 60 | 123 | 5.0 | 11.0 | 0.00 | 0.04 | 0.02 | 81 | 1022.6 |
| 20260508060809 | 60 | 133 | 4.0 | 11.0 | 0.00 | 0.04 | 0.02 | 81 | 1022.6 |
| 20260508055657 | 59 | 134 | 4.0 | 11.0 | 0.00 | 0.04 | 0.02 | 81 | 1022.7 |
| 20260508055140 | 59 | 138 | 5.0 | 11.0 | 0.00 | 0.04 | 0.02 | 81 | 1022.5 |
| 20260508053344 | 59 | 189 | 5.0 | 11.0 | 0.00 | 0.04 | 0.02 | 82 | 1022.7 |
| 20260508052843 | 59 | 202 | 6.0 | 13.0 | 0.00 | 0.04 | 0.02 | 82 | 1022.6 |
| 20260508052334 | 59 | 196 | 6.0 | 13.0 | 0.00 | 0.04 | 0.02 | 82 | 1022.7 |
| 20260508051841 | 59 | 155 | 6.0 | 13.0 | 0.00 | 0.04 | 0.02 | 81 | 1022.6 |
| 20260508051338 | 59 | 155 | 6.0 | 13.0 | 0.00 | 0.04 | 0.02 | 81 | 1022.6 |
| 20260508050846 | 59 | 149 | 5.0 | 9.0 | 0.00 | 0.04 | 0.02 | 81 | 1022.5 |
| 20260508050349 | 59 | 155 | 5.0 | 9.0 | 0.00 | 0.04 | 0.02 | 81 | 1022.5 |
| 20260508045833 | 59 | 160 | 5.0 | 11.0 | 0.00 | 0.04 | 0.02 | 81 | 1022.5 |
| 20260508045328 | 59 | 175 | 6.0 | 11.0 | 0.00 | 0.04 | 0.02 | 81 | 1022.6 |
| 20260508044836 | 60 | 232 | 6.0 | 13.0 | 0.00 | 0.04 | 0.02 | 80 | 1022.6 |
| 20260508043038 | 60 | 171 | 7.0 | 12.0 | 0.00 | 0.06 | 0.02 | 78 | 1022.4 |
| 20260508042546 | 60 | 177 | 5.0 | 12.0 | 0.00 | 0.06 | 0.02 | 79 | 1022.5 |
| 20260508042050 | 60 | 186 | 5.0 | 13.0 | 0.00 | 0.06 | 0.02 | 79 | 1022.4 |
| 20260508041546 | 60 | 127 | 6.0 | 13.0 | 0.00 | 0.06 | 0.02 | 79 | 1022.3 |
| 20260508041055 | 61 | 146 | 6.0 | 13.0 | 0.00 | 0.06 | 0.02 | 79 | 1022.2 |
| 20260508040546 | 61 | 111 | 4.0 | 13.0 | 0.00 | 0.06 | 0.02 | 79 | 1022.2 |
| 20260508040031 | 61 | 139 | 3.0 | 11.0 | 0.00 | 0.06 | 0.02 | 78 | 1022.2 |
| 20260508035532 | 61 | 156 | 4.0 | 11.0 | 0.00 | 0.07 | 0.02 | 78 | 1022.2 |
| 20260508035029 | 60 | 102 | 4.0 | 11.0 | 0.00 | 0.07 | 0.02 | 78 | 1022.2 |
| 20260508034509 | 60 | 143 | 3.0 | 10.0 | 0.00 | 0.07 | 0.02 | 79 | 1022.2 |
| 20260508034010 | 60 | 134 | 3.0 | 9.0 | 0.00 | 0.07 | 0.02 | 79 | 1022.2 |
| 20260508033452 | 60 | 263 | 3.0 | 11.0 | 0.00 | 0.07 | 0.02 | 79 | 1022.1 |
| 20260508032313 | 60 | 70 | 5.0 | 11.0 | 0.00 | 0.07 | 0.02 | 78 | 1022.2 |
| 20260508031753 | 60 | 174 | 5.0 | 11.0 | 0.00 | 0.07 | 0.02 | 77 | 1022.1 |
| 20260508031255 | 60 | 104 | 4.0 | 11.0 | 0.00 | 0.07 | 0.02 | 78 | 1022.1 |
| 20260508030757 | 60 | 139 | 4.0 | 9.0 | 0.00 | 0.07 | 0.02 | 78 | 1022.2 |
| 20260508030304 | 60 | 144 | 4.0 | 10.0 | 0.00 | 0.07 | 0.02 | 77 | 1022.3 |
| 20260508025750 | 60 | 283 | 4.0 | 10.0 | 0.00 | 0.07 | 0.02 | 77 | 1022.3 |
| 20260508025247 | 60 | 143 | 3.0 | 10.0 | 0.00 | 0.08 | 0.02 | 78 | 1022.2 |
| 20260508024732 | 61 | 124 | 3.0 | 10.0 | 0.00 | 0.11 | 0.02 | 77 | 1022.2 |
| 20260508024225 | 61 | 67 | 3.0 | 9.0 | 0.00 | 0.11 | 0.02 | 78 | 1022.2 |
| 20260508023117 | 60 | 122 | 3.0 | 9.0 | 0.00 | 0.11 | 0.02 | 81 | 1022.2 |
| 20260508022605 | 60 | 123 | 3.0 | 10.0 | 0.00 | 0.13 | 0.02 | 81 | 1022.5 |
| 20260508022059 | 59 | 67 | 2.0 | 10.0 | 0.00 | 0.14 | 0.02 | 82 | 1022.6 |
| 20260508021558 | 59 | 75 | 3.0 | 10.0 | 0.00 | 0.14 | 0.02 | 81 | 1022.7 |
| 20260508020427 | 59 | 251 | 1.0 | 9.0 | 0.00 | 0.15 | 0.02 | 84 | 1022.8 |
| 20260508015927 | 59 | 93 | 1.0 | 6.0 | 0.00 | 0.15 | 0.02 | 85 | 1022.7 |
| 20260508015420 | 59 | 160 | 1.0 | 5.0 | 0.00 | 0.15 | 0.02 | 86 | 1022.7 |
| 20260508014259 | 59 | 48 | 1.0 | 7.0 | 0.00 | 0.15 | 0.02 | 86 | 1022.9 |
| 20260508013740 | 58 | 334 | 2.0 | 7.0 | 0.00 | 0.15 | 0.02 | 86 | 1022.9 |
| 20260508013221 | 58 | 314 | 1.0 | 7.0 | 0.00 | 0.15 | 0.02 | 87 | 1022.6 |
| 20260508012725 | 58 | 255 | 0.0 | 6.0 | 0.00 | 0.14 | 0.01 | 87 | 1022.6 |
| 20260508011615 | 58 | 280 | 2.0 | 9.0 | 0.00 | 0.16 | 0.01 | 86 | 1022.6 |
| 20260508011121 | 58 | 23 | 3.0 | 10.0 | 0.00 | 0.16 | 0.01 | 85 | 1022.6 |
| 20260508010604 | 59 | 56 | 3.0 | 10.0 | 0.00 | 0.16 | 0.01 | 85 | 1022.6 |
| 20260508010110 | 59 | 259 | 3.0 | 10.0 | 0.00 | 0.18 | 0.01 | 85 | 1022.6 |
| 20260508005610 | 59 | 292 | 3.0 | 10.0 | 0.00 | 0.20 | 0.01 | 86 | 1022.5 |
| 20260508005102 | 58 | 117 | 3.0 | 12.0 | 0.00 | 0.20 | 0.01 | 86 | 1022.5 |